SCP
0 0 0 0 0 0 0 0 0 0 0 0 0 0 0 0 0 0 0 0 0 1 1 1 1 1 1 1 1 1 1 1 1 1 1 1 1 1 1 1 1 1 1 1 1 1 1 0 0
0 0 0 0 0 0 0 0 0 0 0 0 0 0 0 0 0 0 0 0 1 1 1 1 1 1 1 1 1 1 1 1 1 1 1 1 1 1 1 1 1 1 1 1 1 1 0 0 0
0 0 0 0 0 0 0 0 0 0 0 0 0 0 0 0 0 0 0 1 1 1 1 1 1 1 1 1 1 1 1 1 1 1 1 1 1 1 1 1 1 1 2 2 1 1 0 0 0
0 0 0 0 0 0 0 0 0 0 0 0 0 0 0 0 0 0 1 1 1 1 1 1 1 1 2 1 1 1 1 1 1 1 1 1 1 1 1 1 1 1 2 2 1 1 1 0 0
0 0 0 0 0 0 0 0 0 0 0 0 0 0 0 0 0 0 1 1 1 1 1 1 1 2 2 2 1 1 1 1 1 1 1 1 1 1 1 1 1 2 2 1 1 1 1 1 0
0 0 0 0 0 0 0 0 0 0 0 0 0 0 0 0 0 0 1 1 1 1 1 1 1 2 2 1 1 1 1 1 1 1 1 1 1 1 1 1 1 1 1 1 1 1 1 1 1
0 0 0 0 0 0 0 0 0 0 0 0 0 0 0 0 0 0 1 1 1 2 1 1 1 1 1 1 1 1 1 1 1 1 1 1 1 1 1 1 1 1 1 1 0 0 1 1 1
0 0 0 0 0 0 0 0 0 0 0 0 0 0 0 0 0 0 1 1 1 1 1 1 1 1 1 1 1 1 1 1 1 1 1 1 0 0 0 1 1 1 1 1 0 0 0 0 0
0 0 0 0 0 0 0 0 0 0 0 0 0 0 0 0 0 0 1 1 1 1 1 1 1 1 1 1 1 1 1 1 1 1 1 1 0 0 0 0 0 1 1 1 1 0 0 0 0
0 0 0 0 0 0 0 0 0 0 0 0 0 0 0 0 0 1 1 1 1 1 1 1 1 1 1 0 0 0 0 1 1 1 1 1 0 0 0 0 0 0 1 1 1 1 0 0 0
0 0 0 0 0 0 0 0 0 0 0 0 0 0 0 0 0 0 1 1 1 1 1 1 1 1 0 0 0 0 0 0 0 0 0 0 0 0 0 0 0 0 0 1 1 1 0 0 0
0 0 0 0 0 0 0 0 0 0 0 0 0 0 0 0 0 0 0 1 1 1 1 1 1 0 0 0 0 0 0 0 0 0 0 0 0 0 0 0 0 0 0 0 0 0 0 0 0
0 0 0 0 0 0 0 0 0 0 0 0 0 0 0 0 0 0 0 1 1 1 1 1 1 0 0 0 0 0 0 0 0 0 0 0 0 0 0 0 0 0 0 0 0 0 0 0 0
0 0 0 0 0 0 0 0 0 0 0 0 0 0 0 0 0 0 0 0 0 0 1 1 1 0 0 0 0 0 0 0 0 0 0 0 0 0 0 0 0 0 0 0 0 0 0 0 0
0 0 0 0 0 0 0 0 0 0 0 0 0 0 0 0 0 0 0 0 0 0 0 1 1 1 1 0 0 0 0 0 0 0 0 0 0 0 0 0 0 0 0 0 0 0 0 0 0
0 0 0 0 0 0 0 0 0 0 0 0 0 0 0 0 0 0 0 0 0 0 0 0 1 1 1 1 0 0 0 0 0 0 0 0 0 0 0 0 0 0 0 0 0 0 0 0 0
0 0 0 0 0 0 0 0 0 0 0 0 0 0 0 0 0 0 0 0 0 0 0 0 0 1 1 1 0 0 0 0 0 0 0 0 0 0 0 0 0 0 0 0 0 0 0 0 0
0 0 0 0 0 0 0 0 0 0 0 0 0 0 0 0 0 0 0 0 0 0 0 0 0 1 1 1 0 0 0 0 0 0 0 0 0 0 0 0 0 0 0 0 0 0 0 0 0
0 0 0 0 0 0 0 0 0 0 0 0 0 0 0 0 0 0 0 0 0 0 0 0 0 1 1 1 0 0 0 0 0 0 0 0 0 0 0 0 0 0 0 0 0 0 0 0 0
0 0 0 0 0 0 0 0 0 0 0 0 0 0 0 0 0 0 0 0 0 0 0 0 0 0 1 1 0 0 0 0 0 0 0 0 0 0 0 0 0 0 0 0 0 0 0 0 0
0 0 0 0 0 0 0 0 0 0 0 0 0 0 0 0 0 0 0 0 0 0 0 0 0 0 1 1 1 0 0 0 0 0 0 0 0 0 0 0 0 0 0 0 0 0 0 0 0
0 0 0 0 0 0 0 0 0 0 0 0 0 0 0 0 0 0 0 0 0 0 0 0 0 0 0 1 1 0 0 0 0 0 0 0 0 0 0 0 0 0 0 0 0 0 0 0 0
0 0 0 0 0 0 0 0 0 0 0 0 0 0 0 0 0 0 0 0 0 0 0 0 0 0 0 1 1 0 0 0 0 0 0 0 0 0 0 0 0 0 0 0 0 0 0 0 0
0 0 0 0 0 0 0 0 0 0 0 0 0 0 0 0 0 0 0 0 0 0 0 0 0 0 0 0 0 0 0 0 0 0 0 0 0 0 0 0 0 0 0 0 0 0 0 0 0
0 0 0 0 0 0 0 0 0 0 0 0 0 0 0 0 0 0 0 0 0 0 0 0 0 0 0 0 0 0 0 0 0 0 0 0 0 0 0 0 0 0 0 0 0 0 0 0 0
0 0 0 0 0 0 0 0 0 0 0 0 0 0 0 0 0 0 0 0 0 0 0 0 0 0 0 0 0 0 0 0 0 0 0 0 0 0 0 0 0 0 0 0 0 0 0 0 0
0 0 0 0 0 0 0 0 0 0 0 0 0 0 0 0 0 0 0 0 0 0 0 0 0 0 0 0 0 0 0 0 0 0 0 0 0 0 0 0 0 0 0 0 0 0 0 0 0
0 0 0 0 0 0 0 0 0 0 0 0 0 0 0 0 0 0 0 0 0 0 0 0 0 0 0 0 0 0 0 0 0 0 0 0 0 0 0 0 0 0 0 0 0 0 0 0 0
0 0 0 0 0 0 0 0 0 0 0 0 0 0 0 0 0 0 0 0 0 0 0 0 0 0 0 0 0 0 0 0 0 0 0 0 0 0 0 0 0 0 0 0 0 0 0 0 0
0 0 0 0 0 0 0 0 0 0 0 0 0 0 0 0 0 0 0 0 0 0 0 0 0 0 0 0 0 0 0 0 0 0 0 0 0 0 0 0 0 0 0 0 0 0 0 0 0
Wind_Speed
8 5 2 4 5 4 1 3 2 0 1 1 2 6 6 4 2 2 1 3 4 4 2 3 4 6 7 7 8 7 7 7 8 8 8 8 8 7 7 8 7 7 8 8 9 9 9 9 9
4 2 4 5 5 2 3 3 2 2 1 1 3 5 6 4 3 3 2 2 4 4 3 3 4 6 7 7 7 7 7 7 7 7 7 8 7 7 7 7 7 7 7 8 8 8 8 8 8
3 1 4 4 3 5 4 2 2 1 2 2 3 4 4 3 2 1 2 3 4 4 3 3 5 6 6 7 7 7 6 6 6 7 7 7 7 7 7 7 7 7 7 7 8 8 8 8 8
3 4 5 4 2 3 3 2 1 1 3 4 4 5 4 3 1 1 1 4 5 4 3 3 5 5 6 6 6 6 6 6 6 7 7 7 7 7 7 7 7 7 7 7 7 7 8 8 8
3 4 3 1 2 2 1 1 1 1 1 2 3 4 3 3 4 4 3 4 5 3 3 3 5 5 5 5 6 6 5 5 6 6 6 7 7 6 6 6 6 7 7 7 7 7 7 7 8
4 4 3 3 3 2 1 1 0 2 1 1 3 3 2 3 5 4 3 4 4 4 3 3 5 5 4 4 4 4 5 5 5 6 6 6 6 6 6 5 6 6 7 7 7 7 7 7 7
4 4 3 3 3 2 2 0 1 1 1 0 1 3 0 2 3 3 3 4 4 4 4 4 3 4 4 4 4 3 4 4 4 5 5 5 6 6 5 5 5 6 6 7 7 6 6 6 6
4 4 2 2 3 3 2 1 0 2 1 1 3 4 2 2 1 3 4 4 4 4 4 4 4 4 3 3 4 4 4 4 4 4 4 5 5 5 5 4 5 6 6 6 6 6 5 5 6
3 4 2 3 4 2 1 1 1 1 3 3 3 2 1 3 3 5 5 5 4 4 4 3 3 3 3 2 3 3 3 3 3 3 3 3 2 2 3 4 5 5 6 6 6 6 6 5 5
4 3 4 2 2 2 1 1 0 2 2 2 3 4 4 4 4 4 3 2 2 2 2 2 2 2 2 2 2 2 2 2 2 1 1 1 2 2 3 4 4 4 5 5 5 5 5 4 2
3 4 2 0 1 1 1 1 1 3 1 2 2 1 2 3 3 2 2 2 1 1 1 1 1 1 1 1 1 1 1 1 1 1 1 1 2 1 2 1 2 2 3 2 3 3 2 2 1
3 1 1 0 0 1 1 1 1 2 3 2 3 3 3 3 2 2 1 1 0 1 1 1 1 1 1 1 1 1 1 1 1 1 1 1 1 1 1 1 1 1 1 1 1 1 1 1 1
2 1 1 1 2 2 2 1 1 2 2 0 2 3 3 3 2 1 1 0 1 1 0 0 1 1 1 1 0 1 1 0 1 0 1 1 1 1 1 1 1 1 1 1 1 1 1 1 1
2 2 0 0 0 0 1 2 1 5 2 1 1 2 2 2 2 1 1 0 0 0 0 0 1 1 1 1 0 1 0 0 0 0 1 1 1 1 1 1 1 1 1 1 1 1 1 0 0
2 2 2 1 2 2 1 3 5 5 1 1 1 2 2 2 1 2 2 2 2 1 0 0 1 1 1 1 1 1 1 1 0 0 0 0 0 0 1 1 1 1 1 1 1 1 1 0 0
2 1 2 3 1 2 3 6 5 3 2 2 2 2 2 2 2 2 2 2 2 1 0 0 1 1 1 1 1 1 1 1 0 0 1 1 0 0 0 1 1 1 1 1 1 1 0 1 0
1 2 4 4 2 1 3 7 4 2 3 4 4 3 3 3 2 2 2 2 2 2 2 0 1 1 0 0 1 1 1 1 0 0 1 1 1 0 0 1 0 1 1 1 1 0 1 1 1
4 4 3 4 2 1 4 8 6 3 4 5 5 4 4 4 5 3 2 2 2 2 2 1 0 1 0 1 1 1 1 1 0 0 0 1 1 1 0 0 0 1 1 1 1 1 1 1 1
4 4 4 5 3 2 6 9 8 5 5 6 6 6 5 5 4 2 2 1 1 1 1 1 0 0 1 0 0 0 0 0 0 0 1 1 1 1 0 0 0 0 1 1 1 1 1 1 0
3 3 4 4 1 3 6 10 8 6 6 6 6 6 6 4 2 1 1 1 1 1 1 1 1 1 1 1 1 0 0 0 0 1 0 1 1 1 1 0 1 1 1 1 1 1 1 1 0
4 5 5 4 3 2 3 7 6 4 4 3 4 4 5 5 4 3 2 1 1 1 1 1 1 1 1 1 1 2 2 1 1 1 1 1 1 1 1 1 1 1 1 1 2 2 2 2 2
6 4 4 3 1 4 1 6 7 4 4 5 4 3 4 4 4 3 3 2 2 2 1 1 1 0 0 1 1 2 1 0 1 1 1 2 1 1 1 1 1 1 1 2 2 2 2 3 2
5 2 3 3 3 3 2 3 9 2 5 7 5 5 5 5 4 4 3 3 2 2 1 1 1 0 1 1 1 1 1 1 1 1 1 1 2 2 1 1 1 1 1 2 2 2 2 2 3
1 2 2 2 2 4 5 5 9 5 7 5 5 5 4 3 3 3 2 2 1 1 1 1 1 0 0 0 1 1 1 1 1 1 1 1 2 2 2 2 1 2 2 2 2 2 2 2 2
2 4 2 3 2 7 2 5 11 5 4 5 5 5 3 2 2 2 2 1 1 1 1 1 1 0 1 1 1 2 2 2 2 2 2 2 2 2 3 2 2 2 2 2 1 2 2 2 3
3 5 6 5 5 5 2 8 8 3 2 2 3 3 2 2 2 2 2 2 2 1 1 1 1 1 1 1 2 2 2 2 2 2 2 3 3 3 3 2 2 2 2 2 2 2 2 2 3
4 4 3 3 0 3 6 6 7 2 1 1 2 1 2 2 2 2 2 2 2 1 1 1 1 0 1 2 2 2 2 2 2 2 2 2 2 2 2 3 2 2 2 2 2 2 2 2 3
2 4 3 4 3 5 6 6 6 4 4 4 3 3 3 2 1 1 1 1 1 1 0 0 0 1 1 2 2 1 2 2 2 2 2 2 2 2 2 3 3 3 2 2 2 2 2 2 2
3 3 4 3 4 5 5 9 6 7 6 5 5 4 3 2 1 1 1 1 0 0 0 0 0 1 1 2 2 2 2 1 1 2 2 2 2 2 2 3 2 3 3 2 2 2 2 2 3
4 6 6 5 5 4 4 10 3 3 3 3 3 3 1 1 1 1 1 0 0 0 1 1 1 1 2 2 2 2 1 1 2 2 2 2 2 2 2 2 2 2 3 3 3 3 2 2 3
Wind_Direction
336 337 47 58 60 57 239 256 229 301 29 19 60 89 98 89 92 136 39 67 96 115 127 123 113 110 105 104 105 101 99 96 93 92 90 90 88 90 94 94 92 89 86 86 83 80 77 73 69
333 350 55 62 96 137 261 258 232 230 186 126 62 72 75 69 58 82 18 46 107 116 116 120 99 104 104 101 103 106 102 99 96 95 93 90 88 87 89 95 94 91 90 91 86 81 77 73 69
329 48 81 82 130 180 209 241 204 126 31 62 73 54 80 77 60 63 343 92 97 97 92 105 99 103 104 103 101 106 108 103 100 96 92 86 84 84 85 89 93 91 90 89 87 81 78 74 69
51 51 62 88 185 220 206 249 240 122 23 30 96 81 71 44 31 344 72 93 98 89 83 89 90 99 106 106 105 101 107 107 101 96 92 85 83 82 86 89 91 92 91 90 88 85 80 75 70
64 81 83 113 218 241 247 289 104 95 86 13 84 110 101 13 26 64 77 87 93 78 66 78 80 83 88 105 108 105 102 106 104 97 93 88 83 83 86 93 93 91 92 93 91 88 84 79 73
64 76 116 204 217 243 298 304 94 74 79 24 68 111 133 22 32 42 62 81 85 84 72 69 63 62 65 79 105 107 106 104 108 101 95 91 85 82 83 89 96 94 92 95 96 91 87 83 76
109 114 170 190 197 252 268 287 101 136 98 48 114 114 136 352 8 38 63 75 70 72 65 52 51 49 47 52 58 88 98 96 94 101 98 91 85 82 79 87 96 95 93 91 91 90 86 82 77
128 115 158 188 187 232 285 40 39 95 132 43 94 128 221 270 359 59 68 74 67 62 59 51 39 39 34 28 41 52 79 89 85 88 90 87 87 82 78 78 95 98 95 92 89 84 80 75 75
94 91 196 205 182 206 309 94 14 41 93 63 66 106 236 123 100 73 54 46 45 43 43 48 41 36 31 34 33 40 62 74 83 88 90 88 87 87 78 68 83 96 95 91 89 83 75 66 65
88 156 213 223 164 157 65 71 72 70 59 44 27 24 47 88 102 98 85 74 58 37 30 37 46 42 35 36 38 30 43 54 56 63 80 86 84 83 81 77 76 81 86 86 84 75 67 54 43
120 168 176 136 119 129 101 21 33 131 213 220 213 216 96 94 97 110 129 141 160 142 56 34 44 51 48 43 46 41 33 43 50 48 53 82 92 82 77 77 74 80 80 72 65 54 52 55 41
126 177 160 212 359 66 134 172 69 152 220 225 173 147 133 135 157 175 186 221 142 119 125 41 60 65 35 52 83 91 65 57 55 34 55 81 110 105 108 95 83 83 87 95 76 61 49 56 46
163 206 55 86 74 85 94 151 171 244 245 316 109 124 151 164 189 214 183 121 65 113 78 27 72 95 82 76 63 86 72 93 111 74 61 70 107 138 135 133 122 123 112 126 122 111 70 46 34
165 147 153 301 293 109 154 273 202 252 214 86 124 163 189 187 190 187 96 51 343 245 241 23 65 77 95 113 127 126 125 72 127 129 70 91 105 133 149 153 156 162 165 173 166 175 151 174 169
114 90 341 284 227 212 136 300 236 237 169 166 207 202 203 219 196 194 200 200 211 228 252 93 120 61 79 98 91 89 88 86 100 97 89 106 123 150 148 163 174 186 179 168 150 153 155 155 227
69 72 285 283 216 192 150 254 255 226 176 217 238 232 227 240 228 228 217 207 200 183 142 28 69 59 69 85 75 73 80 88 71 31 58 42 30 117 151 179 201 193 160 159 159 148 158 187 228
54 219 237 276 245 169 179 244 260 228 190 223 237 235 235 251 264 255 230 212 201 187 166 128 89 96 72 71 83 76 83 78 24 42 26 355 15 360 186 211 218 175 157 170 195 195 190 208 244
205 212 228 240 257 180 228 251 264 247 212 229 239 240 237 241 249 239 222 213 193 178 156 131 104 83 70 76 59 50 52 30 6 44 360 357 348 6 326 215 201 154 161 187 194 216 241 222 219
181 191 231 250 242 230 241 255 263 251 235 239 240 239 239 244 249 231 210 190 142 114 137 139 112 101 93 94 140 129 288 288 326 316 351 339 340 351 336 324 185 169 195 207 194 217 228 257 112
206 223 254 280 263 238 257 264 261 242 228 226 230 232 233 241 261 246 215 167 157 164 174 174 200 171 164 190 198 204 235 264 321 346 339 340 336 313 291 281 231 230 221 221 207 185 202 257 176
232 218 231 250 319 296 293 289 259 247 229 234 233 226 222 212 215 218 200 191 164 185 208 205 225 212 180 125 68 43 41 29 25 353 323 325 316 296 296 270 246 245 215 221 237 217 200 212 234
242 227 218 226 245 276 189 283 275 246 255 246 243 234 227 221 215 210 199 196 189 206 208 199 202 40 110 127 122 119 128 231 254 272 287 301 306 301 294 276 250 241 247 241 242 251 248 205 216
226 227 214 213 201 269 237 233 278 258 252 249 236 229 232 222 208 204 201 202 202 195 186 184 143 68 52 130 161 168 226 280 316 320 296 299 305 302 300 281 256 248 252 251 255 259 264 238 221
173 58 48 60 94 256 224 197 270 234 227 238 227 229 230 219 205 200 204 183 180 161 151 136 120 40 9 157 183 202 237 282 308 290 260 279 297 295 307 304 275 254 250 245 255 254 258 266 257
103 100 36 352 317 251 214 213 249 244 229 214 210 215 218 207 196 200 201 188 198 191 179 165 157 224 267 231 234 236 246 241 240 253 241 259 274 282 283 298 286 273 268 260 261 258 262 262 260
186 157 166 202 230 272 249 233 250 249 243 211 195 196 203 215 210 214 217 213 224 223 200 184 187 249 269 248 253 245 242 243 252 261 257 245 251 260 272 275 278 280 276 265 248 251 259 261 262
169 198 182 151 214 269 258 271 288 225 266 216 195 197 221 231 230 229 232 217 218 224 222 193 187 285 288 275 267 252 242 253 263 272 273 264 276 279 273 267 264 269 268 266 255 254 257 255 256
169 153 126 154 181 249 270 255 241 226 229 228 222 228 237 231 238 241 242 227 213 208 236 134 162 234 282 295 276 280 264 266 276 272 277 279 279 283 276 274 270 269 270 269 262 271 266 259 260
171 178 172 177 187 194 256 263 225 207 210 214 221 220 214 219 242 256 272 258 213 111 52 44 324 320 311 302 291 293 285 283 284 273 272 279 280 277 267 270 272 269 268 268 266 270 275 261 264
199 196 171 183 229 214 237 265 250 216 218 203 220 237 242 229 235 259 260 17 76 336 323 311 312 311 305 294 285 282 293 297 286 284 287 291 280 277 277 278 278 278 275 271 264 264 260 250 256